User: anonymous   Login
Location: Unspecified
(0.0000°N, 0.0000°E)
Time: 00:46:31
(UTC+00:00)
Language:

STARLINK-33676 - Orbit

View from above orbital plane
View from above orbital plane
View from above satellite
View from above satellite

Ground track
Ground track

The orbit is defined by the following mean orbital elements,

1 63403U          26145.40093034 +.00000000 +00000-0 +74474-3 0 00009
2 63403  43.0000  33.7057 0000469 326.1204  33.9618 15.27585549    08
Epoch (UTC): 25 May 2026 09:37:20
Eccentricity: 0.0000469
inclination: 43.0000°
perigee height: 483 km
apogee height: 483 km
right ascension of ascending node: 33.7057°
argument of perigee: 326.1204°
revolutions per day: 15.27585549
mean anomaly at epoch: 33.9618°

The dashed part of the orbit path shows where the satellite is in the earth's shadow,  

DLR